Location: Bastogne Gables
(35.1554°N, 78.9900°W)
Time: 03:17:39
(UTC+00:00)

Cosmos 2219 - Pass Details

Date: 29 October 2020
Orbit: 832 x 862 km, 71.1° (Epoch: 26 November)

Event Time Altitude Azimuth Distance (km) Brightness Sun altitude
Rises 23:12:00 0° 341° (NNW) 3,443 6.5 -10.4°
Reaches altitude 10° 23:14:29 10° 343° (NNW) 2,504 5.8 -10.9°
Maximum altitude 23:20:15 72° 68° (ENE) 905 3.2 -12.1°
Drops below altitude 10° 23:25:57 10° 153° (SSE) 2,485 5.4 -13.2°
Sets 23:28:24 0° 155° (SSE) 3,416 6.2 -13.7°
